Glendive, MT

4:52 AM MDT on September 26, 2016 (GMT -0600)
Dawson Community

Weather History for KGDV - November, 2010

Change the Weather History Date:

Tuesday, November 30, 2010

  Actual Average Record
Temperature  
Mean Temperature 9 °F -  
Max Temperature 15 °F 34 °F 51 °F (1999)
Min Temperature 1 °F 16 °F -7 °F (2014)
Degree Days  
Heating Degree Days 56    
Moisture  
Dew Point 9 °F    
Average Humidity 87    
Maximum Humidity 100    
Minimum Humidity 67    
Precipitation  
Precipitation 0.00 in - - ()
Sea Level Pressure  
Sea Level Pressure 30.15 in    
Wind  
Wind Speed 5 mph (NW)    
Max Wind Speed 13 mph    
Max Gust Speed -    
Visibility 8 miles    
Events      
Averages and records for this station are not official NWS values.
T = Trace of Precipitation, MM = Missing Value Source: NWS Daily Summary

Daily Weather History Graph

Daily Weather History Graph

Search for Another Location

Airport or City:

Trip Planner

Search our weather history database for the weather conditions in past years. The results will help you decide how hot, cold, wet, or windy it might be!

Date:

Astronomy

Nov. 30, 2010 Rise Set
Actual Time 7:23 AM MST 4:12 PM MST
Civil Twilight 6:48 AM MST 4:46 PM MST
Nautical Twilight 6:10 AM MST 5:24 PM MST
Astronomical Twilight 5:33 AM MST 6:01 PM MST
Moon 1:23 AM MST (11/30) 12:59 PM MST (11/30)
Length of Visible Light 9h 57m
Length of Day
8h 48m
Waning Crescent, 29% of the Moon is Illuminated
Nov 30
Waning Crescent
Dec 5
New
Dec 13
First Quarter
Dec 21
Full
Dec 27
Last Quarter

Hourly Weather History & Observations

Time (MST) Temp. Windchill Dew Point Humidity Pressure Visibility Wind Dir Wind Speed Gust Speed Precip Events Conditions
12:15 AM 10.4 °F - 6.8 °F 85% 30.18 in 10.0 mi Calm Calm - N/A   Overcast
12:35 AM 10.4 °F - 10.4 °F 100% 30.18 in 10.0 mi Calm Calm - N/A   Overcast
12:55 AM 12.2 °F 6.1 °F 10.4 °F 92% 30.18 in 10.0 mi WSW 3.5 mph - N/A   Overcast
1:15 AM 12.2 °F - 12.2 °F 100% 30.18 in 10.0 mi Calm Calm - N/A   Overcast
1:35 AM 12.2 °F 6.1 °F 10.4 °F 92% 30.18 in 10.0 mi NW 3.5 mph - N/A   Overcast
1:55 AM 12.2 °F 4.3 °F 10.4 °F 92% 30.17 in 10.0 mi WNW 4.6 mph - N/A   Overcast
2:15 AM 12.2 °F 4.3 °F 12.2 °F 100% 30.17 in 10.0 mi NW 4.6 mph - N/A   Overcast
2:35 AM 12.2 °F 2.9 °F 10.4 °F 92% 30.17 in 10.0 mi West 5.8 mph - N/A   Overcast
2:55 AM 12.2 °F 4.3 °F 12.2 °F 100% 30.16 in 10.0 mi WNW 4.6 mph - N/A   Overcast
3:15 AM 12.2 °F 6.1 °F 10.4 °F 92% 30.16 in 5.0 mi WNW 3.5 mph - N/A   Overcast
3:35 AM 12.2 °F 4.3 °F 8.6 °F 85% 30.16 in 5.0 mi WNW 4.6 mph - N/A   Overcast
3:55 AM 12.2 °F - 10.4 °F 92% 30.15 in 4.0 mi Calm Calm - N/A   Overcast
4:15 AM 12.2 °F 1.7 °F 10.4 °F 92% 30.16 in 10.0 mi NW 6.9 mph - N/A   Overcast
4:35 AM 14.0 °F 5.1 °F 10.4 °F 86% 30.16 in 10.0 mi NNW 5.8 mph - N/A   Overcast
4:55 AM 14.0 °F 2.9 °F 10.4 °F 86% 30.15 in 10.0 mi NNW 8.1 mph - N/A   Overcast
5:15 AM 14.0 °F 5.1 °F 10.4 °F 86% 30.15 in 10.0 mi North 5.8 mph - N/A   Overcast
5:35 AM 14.0 °F 6.5 °F 12.2 °F 93% 30.15 in 10.0 mi North 4.6 mph - N/A   Overcast
5:55 AM 14.0 °F 5.1 °F 12.2 °F 93% 30.15 in 10.0 mi North 5.8 mph - N/A   Overcast
6:15 AM 14.0 °F 6.5 °F 10.4 °F 86% 30.16 in 10.0 mi North 4.6 mph - N/A   Overcast
6:35 AM 14.0 °F 6.5 °F 12.2 °F 93% 30.16 in 4.0 mi NW 4.6 mph - N/A   Overcast
6:55 AM 14.0 °F 6.5 °F 12.2 °F 93% 30.16 in 3.0 mi WNW 4.6 mph - N/A   Overcast
7:15 AM 14.0 °F 2.9 °F 12.2 °F 93% 30.16 in 1.0 mi NW 8.1 mph - N/A   Overcast
7:35 AM 14.0 °F 2.9 °F 10.4 °F 86% 30.16 in 0.8 mi NW 8.1 mph - N/A   Overcast
7:55 AM 14.0 °F -0.2 °F 10.4 °F 86% 30.16 in 1.2 mi NW 12.7 mph - N/A   Overcast
8:15 AM 12.2 °F -1.0 °F 10.4 °F 92% 30.16 in 3.0 mi North 10.4 mph - N/A   Overcast
8:35 AM 12.2 °F -0.2 °F 10.4 °F 92% 30.16 in 3.0 mi NNW 9.2 mph - N/A   Overcast
8:55 AM 12.2 °F -1.0 °F 10.4 °F 92% 30.16 in 3.0 mi NNW 10.4 mph - N/A   Overcast
9:15 AM 12.2 °F -0.2 °F 10.4 °F 92% 30.16 in 3.0 mi NNW 9.2 mph - N/A   Overcast
9:35 AM 12.2 °F -1.0 °F 10.4 °F 92% 30.16 in 3.0 mi NNW 10.4 mph - N/A   Overcast
9:55 AM 12.2 °F -1.0 °F 10.4 °F 92% 30.16 in 3.0 mi NNW 10.4 mph - N/A   Overcast
10:15 AM 12.2 °F 0.7 °F 8.6 °F 85% 30.16 in 6.0 mi NNW 8.1 mph - N/A   Overcast
10:35 AM 12.2 °F 2.9 °F 8.6 °F 85% 30.16 in 4.0 mi NNW 5.8 mph - N/A   Overcast
10:55 AM 12.2 °F 1.7 °F 8.6 °F 85% 30.15 in 8.0 mi NW 6.9 mph - N/A   Mostly Cloudy
11:15 AM 12.2 °F 1.7 °F 10.4 °F 92% 30.15 in 10.0 mi WNW 6.9 mph - N/A   Clear
11:35 AM 12.2 °F 0.7 °F 8.6 °F 85% 30.14 in 10.0 mi WNW 8.1 mph - N/A   Clear
11:55 AM 12.2 °F 0.7 °F 8.6 °F 85% 30.14 in 10.0 mi NW 8.1 mph - N/A   Clear
12:15 PM 12.2 °F -0.2 °F 8.6 °F 85% 30.13 in 10.0 mi WNW 9.2 mph - N/A   Clear
12:35 PM 12.2 °F 1.7 °F 10.4 °F 92% 30.13 in 10.0 mi NW 6.9 mph - N/A   Clear
12:55 PM 12.2 °F 0.7 °F 8.6 °F 85% 30.13 in 10.0 mi WNW 8.1 mph - N/A   Clear
1:15 PM 12.2 °F 1.7 °F 8.6 °F 85% 30.13 in 10.0 mi WNW 6.9 mph - N/A   Clear
1:35 PM 14.0 °F 3.9 °F 8.6 °F 79% 30.12 in 10.0 mi NW 6.9 mph - N/A   Clear
1:55 PM 14.0 °F 3.9 °F 8.6 °F 79% 30.12 in 10.0 mi West 6.9 mph - N/A   Clear
2:15 PM 15.8 °F 6.1 °F 8.6 °F 73% 30.12 in 10.0 mi NW 6.9 mph - N/A   Clear
2:35 PM 14.0 °F 5.1 °F 6.8 °F 73% 30.12 in 10.0 mi West 5.8 mph - N/A   Clear
2:55 PM 14.0 °F 5.1 °F 6.8 °F 73% 30.12 in 10.0 mi West 5.8 mph - N/A   Clear
3:15 PM 10.4 °F 0.8 °F 1.4 °F 67% 30.12 in 10.0 mi WSW 5.8 mph - N/A   Clear
3:35 PM 10.4 °F 4.0 °F 3.2 °F 73% 30.11 in 10.0 mi West 3.5 mph - N/A   Clear
3:55 PM 8.6 °F - 5.0 °F 85% 30.12 in 10.0 mi Calm Calm - N/A   Clear
4:15 PM 6.8 °F -0.1 °F -0.4 °F 72% 30.12 in 10.0 mi SW 3.5 mph - N/A   Clear
4:35 PM 5.0 °F - -0.4 °F 78% 30.11 in 10.0 mi Calm Calm - N/A   Clear
4:55 PM 3.2 °F -6.2 °F -0.4 °F 85% 30.10 in 10.0 mi SW 4.6 mph - N/A   Clear
5:15 PM 1.4 °F -8.3 °F -2.2 °F 85% 30.10 in 10.0 mi WSW 4.6 mph - N/A   Clear
5:35 PM 1.4 °F -6.2 °F -2.2 °F 85% 30.09 in 10.0 mi WSW 3.5 mph - N/A   Clear
5:55 PM 1.4 °F - -2.2 °F 85% 30.09 in 10.0 mi Calm Calm - N/A   Clear
6:15 PM 1.4 °F -9.9 °F -2.2 °F 85% 30.09 in 10.0 mi SSW 5.8 mph - N/A   Clear
6:35 PM 5.0 °F -4.1 °F 3.2 °F 92% 30.08 in 10.0 mi SSW 4.6 mph - N/A   Partly Cloudy
6:55 PM 3.2 °F -6.2 °F 1.4 °F 92% 30.07 in 10.0 mi SSW 4.6 mph - N/A   Partly Cloudy
7:15 PM 3.2 °F -7.8 °F -2.2 °F 78% 30.07 in 10.0 mi SSW 5.8 mph - N/A   Clear
7:35 PM 3.2 °F -6.2 °F 1.4 °F 92% 30.06 in 10.0 mi SSW 4.6 mph - N/A   Clear
7:55 PM 3.2 °F -9.1 °F -2.2 °F 78% 30.06 in 10.0 mi SSW 6.9 mph - N/A   Clear
8:15 PM 3.2 °F -9.1 °F 1.4 °F 92% 30.05 in 10.0 mi SSW 6.9 mph - N/A   Clear
8:35 PM 5.0 °F -5.6 °F 5.0 °F 100% 30.05 in 10.0 mi SSW 5.8 mph - N/A   Clear
8:55 PM 5.0 °F -2.1 °F 1.4 °F 85% 30.04 in 10.0 mi SSW 3.5 mph - N/A   Clear
9:15 PM 6.8 °F -2.0 °F -0.4 °F 72% 30.03 in 10.0 mi South 4.6 mph - N/A   Clear
9:35 PM 6.8 °F -0.1 °F 3.2 °F 85% 30.03 in 10.0 mi South 3.5 mph - N/A   Clear
9:55 PM 6.8 °F -2.0 °F 3.2 °F 85% 30.02 in 10.0 mi South 4.6 mph - N/A   Clear
10:15 PM 5.0 °F -2.1 °F -0.4 °F 78% 30.02 in 10.0 mi South 3.5 mph - N/A   Clear
10:35 PM 5.0 °F -4.1 °F -0.4 °F 78% 30.02 in 10.0 mi South 4.6 mph - N/A   Clear
10:55 PM 5.0 °F - 1.4 °F 85% 30.02 in 10.0 mi Calm Calm - N/A   Partly Cloudy
11:15 PM 3.2 °F -7.8 °F 1.4 °F 92% 30.00 in 10.0 mi SSW 5.8 mph - N/A   Partly Cloudy
11:35 PM 5.0 °F -4.1 °F 1.4 °F 85% 30.00 in 10.0 mi SW 4.6 mph - N/A   Mostly Cloudy
11:55 PM 6.8 °F - 3.2 °F 85% 29.99 in 10.0 mi Calm Calm - N/A   Overcast